Weather History for KMCD - June, 2014

Change the Weather History Date:

Monday, June 30, 2014

  Actual Average Record
Temperature  
Mean Temperature 71 °F -  
Max Temperature 77 °F 68 °F 82 °F (1975)
Min Temperature 65 °F 53 °F 45 °F (1981)
Cooling Degree Days 6    
Growing Degree Days 21 (Base 50)    
Moisture  
Dew Point 65 °F    
Average Humidity 79    
Maximum Humidity 98    
Minimum Humidity 66    
Precipitation  
Precipitation 0.27 in - - ()
Sea Level Pressure  
Sea Level Pressure 29.71 in    
Wind  
Wind Speed 9 mph (SW)    
Max Wind Speed 18 mph    
Max Gust Speed 51 mph    
Visibility 10 miles    
Events Rain    
Averages and records for this station are not official NWS values.
T = Trace of Precipitation, MM = Missing Value Source: NWS Daily Summary

Daily Weather History Graph

Daily Weather History Graph

Search for Another Location

Airport or City:

Trip Planner

Search our weather history database for the weather conditions in past years. The results will help you decide how hot, cold, wet, or windy it might be!

Date:

Astronomy

Jun. 30, 2014 Rise Set
Actual Time 5:51 AM EDT 9:32 PM EDT
Civil Twilight 5:13 AM EDT 10:10 PM EDT
Nautical Twilight 4:22 AM EDT 11:01 PM EDT
Astronomical Twilight 3:12 AM EDT 12:11 AM EDT
Moon 9:15 AM EDT (6/30) 11:12 PM EDT (6/30)
Length of Visible Light 16h 57m
Length of Day
15h 40m
Waxing Crescent, 10% of the Moon is Illuminated
Jun 30
Waxing Crescent
Jul 5
First Quarter
Jul 12
Full
Jul 18
Last Quarter
Jul 26
New

Hourly Weather History & Observations

Time (EDT) Temp. Dew Point Humidity Pressure Visibility Wind Dir Wind Speed Gust Speed Precip Events Conditions
12:16 AM 70.2 °F 64.0 °F 81% 29.80 in 10.0 mi South 6.9 mph - N/A   Clear
12:37 AM 70.0 °F 64.0 °F 81% 29.80 in 10.0 mi South 6.9 mph - N/A   Clear
12:56 AM 69.6 °F 64.2 °F 83% 29.80 in 10.0 mi SSW 10.4 mph - N/A   Clear
1:16 AM 70.7 °F 64.8 °F 81% 29.80 in 10.0 mi SSW 11.5 mph 17.3 mph N/A   Clear
1:36 AM 70.9 °F 64.6 °F 80% 29.80 in 10.0 mi SSW 11.5 mph 19.6 mph N/A   Clear
1:56 AM 71.6 °F 64.6 °F 78% 29.80 in 10.0 mi SSW 12.7 mph 20.7 mph N/A   Scattered Clouds
2:16 AM 72.0 °F 64.9 °F 78% 29.79 in 10.0 mi SSW 13.8 mph 21.9 mph N/A   Scattered Clouds
2:36 AM 71.6 °F 65.3 °F 80% 29.79 in 10.0 mi SSW 10.4 mph 19.6 mph N/A   Scattered Clouds
2:56 AM 71.2 °F 65.3 °F 81% 29.79 in 10.0 mi SSW 11.5 mph 20.7 mph N/A   Clear
3:16 AM 71.1 °F 65.3 °F 82% 29.80 in 10.0 mi SSW 11.5 mph 18.4 mph N/A   Clear
3:36 AM 71.2 °F 65.5 °F 82% 29.80 in 10.0 mi SSW 10.4 mph 19.6 mph N/A   Scattered Clouds
3:57 AM 70.9 °F 65.7 °F 83% 29.79 in 10.0 mi SSW 9.2 mph 17.3 mph N/A   Scattered Clouds
4:16 AM 71.1 °F 65.8 °F 84% 29.79 in 10.0 mi SSW 11.5 mph - N/A   Scattered Clouds
4:36 AM 71.2 °F 66.0 °F 84% 29.78 in 10.0 mi SSW 10.4 mph 18.4 mph N/A   Scattered Clouds
4:57 AM 71.1 °F 66.0 °F 84% 29.78 in 10.0 mi SW 9.2 mph 16.1 mph N/A   Scattered Clouds
5:16 AM 71.8 °F 66.4 °F 83% 29.77 in 10.0 mi SW 9.2 mph - N/A   Mostly Cloudy
5:36 AM 71.8 °F 66.6 °F 84% 29.77 in 10.0 mi SSW 10.4 mph - N/A   Mostly Cloudy
5:57 AM 66.2 °F 64.0 °F 93% 29.80 in 2.0 mi SSW 5.8 mph 50.6 mph 0.16 in Rain Heavy Rain
6:16 AM 65.8 °F 64.4 °F 95% 29.80 in 10.0 mi SW 6.9 mph - 0.11 in   Overcast
6:36 AM 67.5 °F 66.4 °F 96% 29.79 in 10.0 mi SW 6.9 mph - 0.11 in   Overcast
6:57 AM 67.8 °F 66.6 °F 96% 29.78 in 10.0 mi SW 3.5 mph - 0.11 in   Overcast
7:16 AM 67.1 °F 66.6 °F 98% 29.77 in 7.0 mi SW 4.6 mph - N/A   Overcast
7:36 AM 69.1 °F 67.6 °F 95% 29.76 in 10.0 mi SSW 3.5 mph - N/A   Overcast
7:56 AM 69.6 °F 67.5 °F 93% 29.76 in 10.0 mi SW 3.5 mph - N/A   Overcast
8:16 AM 68.4 °F 66.9 °F 95% 29.75 in 7.0 mi Calm Calm - N/A   Mostly Cloudy
8:37 AM 69.8 °F 67.1 °F 91% 29.75 in 10.0 mi SSW 4.6 mph - N/A   Scattered Clouds
8:56 AM 71.2 °F 66.2 °F 84% 29.74 in 10.0 mi South 4.6 mph - N/A   Clear
9:16 AM 72.1 °F 66.2 °F 82% 29.74 in 10.0 mi SSE 4.6 mph - N/A   Clear
9:37 AM 70.2 °F 64.6 °F 82% 29.74 in 10.0 mi SSE 3.5 mph - N/A   Scattered Clouds
9:56 AM 72.7 °F 63.9 °F 74% 29.74 in 10.0 mi SW 4.6 mph 17.3 mph N/A   Scattered Clouds
10:16 AM 74.1 °F 62.2 °F 66% 29.73 in 10.0 mi SW 10.4 mph 19.6 mph N/A   Scattered Clouds
10:37 AM 74.3 °F 62.6 °F 67% 29.73 in 10.0 mi SW 12.7 mph 20.7 mph N/A   Scattered Clouds
10:56 AM 72.5 °F 62.1 °F 70% 29.74 in 10.0 mi SW 10.4 mph 20.7 mph N/A   Mostly Cloudy
11:17 AM 72.7 °F 61.9 °F 69% 29.73 in 10.0 mi WSW 9.2 mph - N/A   Overcast
11:37 AM 73.0 °F 62.6 °F 70% 29.73 in 10.0 mi WSW 9.2 mph - N/A   Scattered Clouds
11:56 AM 73.9 °F 63.1 °F 69% 29.73 in 10.0 mi WSW 12.7 mph 18.4 mph N/A   Scattered Clouds
12:17 PM 73.4 °F 63.5 °F 71% 29.73 in 10.0 mi WSW 13.8 mph 20.7 mph N/A   Mostly Cloudy
12:36 PM 71.8 °F 63.5 °F 75% 29.73 in 10.0 mi WSW 13.8 mph 23.0 mph N/A   Overcast
12:57 PM 71.8 °F 63.5 °F 75% 29.73 in 10.0 mi West 10.4 mph - N/A   Overcast
1:16 PM 70.7 °F 63.7 °F 78% 29.73 in 10.0 mi WSW 18.4 mph 24.2 mph N/A   Overcast
1:36 PM 70.2 °F 63.7 °F 80% 29.73 in 10.0 mi West 13.8 mph 20.7 mph N/A   Overcast
1:57 PM 71.1 °F 63.9 °F 78% 29.73 in 10.0 mi West 12.7 mph 21.9 mph N/A   Overcast
2:16 PM 72.0 °F 64.4 °F 77% 29.72 in 10.0 mi West 12.7 mph 20.7 mph N/A   Overcast
2:37 PM 72.0 °F 64.8 °F 78% 29.71 in 10.0 mi WSW 10.4 mph 20.7 mph N/A   Mostly Cloudy
2:56 PM 72.7 °F 65.5 °F 78% 29.70 in 10.0 mi WSW 16.1 mph 23.0 mph N/A   Scattered Clouds
3:17 PM 73.6 °F 65.5 °F 76% 29.69 in 10.0 mi WSW 16.1 mph 27.6 mph N/A   Clear
3:37 PM 72.5 °F 64.9 °F 77% 29.68 in 10.0 mi WSW 15.0 mph 24.2 mph N/A   Clear
3:56 PM 73.8 °F 65.8 °F 76% 29.68 in 10.0 mi WSW 8.1 mph 19.6 mph N/A   Clear
4:17 PM 75.6 °F 66.4 °F 73% 29.66 in 10.0 mi WSW 11.5 mph 18.4 mph N/A   Clear
4:36 PM 74.8 °F 65.7 °F 73% 29.65 in 10.0 mi WSW 12.7 mph 19.6 mph N/A   Clear
4:57 PM 75.2 °F 65.7 °F 72% 29.65 in 10.0 mi WSW 11.5 mph 19.6 mph N/A   Clear
5:16 PM 75.7 °F 66.2 °F 72% 29.65 in 10.0 mi WSW 8.1 mph 16.1 mph N/A   Clear
5:36 PM 77.2 °F 65.8 °F 68% 29.64 in 10.0 mi SW 5.8 mph - N/A   Clear
5:57 PM 76.6 °F 66.4 °F 70% 29.63 in 10.0 mi WSW 9.2 mph 18.4 mph N/A   Clear
6:16 PM 76.5 °F 65.7 °F 69% 29.63 in 10.0 mi WSW 9.2 mph 18.4 mph N/A   Clear
6:36 PM 75.9 °F 65.7 °F 70% 29.63 in 10.0 mi SW 11.5 mph 18.4 mph N/A   Clear
6:57 PM 75.0 °F 65.3 °F 72% 29.64 in 10.0 mi SW 5.8 mph 16.1 mph N/A   Clear
7:16 PM 76.1 °F 66.0 °F 71% 29.65 in 10.0 mi SW 9.2 mph 18.4 mph N/A   Clear
7:37 PM 77.4 °F 66.9 °F 70% 29.64 in 10.0 mi SW 8.1 mph - N/A   Clear
7:56 PM 72.3 °F 65.5 °F 79% 29.61 in 10.0 mi SW 6.9 mph - N/A   Clear
8:16 PM 70.3 °F 65.3 °F 84% 29.62 in 10.0 mi WSW 5.8 mph - N/A   Clear
8:37 PM 71.8 °F 66.2 °F 83% 29.62 in 10.0 mi SSW 4.6 mph - N/A   Mostly Cloudy
8:56 PM 72.3 °F 66.4 °F 82% 29.62 in 10.0 mi SSW 9.2 mph - N/A   Scattered Clouds
9:16 PM 73.0 °F 66.9 °F 81% 29.62 in 10.0 mi South 9.2 mph - N/A   Clear
9:37 PM 74.3 °F 67.1 °F 78% 29.61 in 7.0 mi SSW 9.2 mph - N/A   Clear
9:56 PM 74.3 °F 67.3 °F 79% 29.60 in 10.0 mi South 8.1 mph - N/A   Scattered Clouds
10:16 PM 74.7 °F 67.1 °F 77% 29.59 in 10.0 mi SSW 10.4 mph 16.1 mph N/A   Mostly Cloudy
10:37 PM 74.8 °F 67.5 °F 78% 29.58 in 10.0 mi SSW 10.4 mph 16.1 mph N/A   Scattered Clouds
10:57 PM 75.0 °F 67.5 °F 77% 29.57 in 10.0 mi South 10.4 mph 18.4 mph N/A   Clear
11:16 PM 74.7 °F 68.0 °F 80% 29.56 in 10.0 mi South 10.4 mph 17.3 mph N/A Rain Light Rain
11:37 PM 74.7 °F 68.0 °F 80% 29.56 in 10.0 mi South 9.2 mph 18.4 mph N/A Rain Light Rain
11:56 PM 74.7 °F 68.5 °F 81% 29.55 in 10.0 mi South 8.1 mph - N/A   Scattered Clouds